Flag Weather past 2 weeks in Tirana, Albania

Now
52 °F

Fog.


Feels Like: 52 °F
Forecast: 48 / 64 °F
Wind: 2 mph from Southeast

Location: Tirana Airport

Current Time: Nov 26, 2014 at 9:43:19 PM

Latest Report: Nov 26, 2014 at 9:20 PM


Visibility: 2 mi

Pressure: 30.07 "Hg

Humidity: 88%

Dew point: 48 °F

Location of TiranaLocation

Historic Weather in Tirana — Graph

°F

Tirana temperature yesterday

Maximum temperature yesterday: 61 °F (at 1:50 PM)
Minimum temperature yesterday: 34 °F (at 5:20 AM)
Average temperature yesterday: 47 °F

Past Weeks' High & Low Weather Summary

 TemperatureHumidityPressure
High73 °F (Nov 12, 1:50 PM)100% (Nov 20, 6:20 AM)30.30 "Hg (Nov 20, 6:20 AM)
Low34 °F (Nov 21, 5:50 AM)34% (Nov 22, 2:20 PM)29.74 "Hg (Nov 13, 11:50 AM)
Average53 °F78%30.03 "Hg
* Reported Nov 11 8:20 PM — Nov 26 8:50 PM, Tirana, Weather by CustomWeather, © 2014

Note: Actual official high and low records may vary slightly from our data, if they occured in-between our weather recording intervals... More about our weather records

Advertising

Tirana weather history for previous 24 hours

 ConditionsComfort  
Time TempWeatherWind HumidityBarometerVisibility
8:50 PM
Nov 26
52 °FFog.3 mph88%30.04 "Hg3 mi
8:20 PM52 °FFog.2 mph88%30.04 "Hg3 mi
7:50 PM52 °FFog.No wind88%30.04 "Hg2 mi
7:20 PM52 °FFog.2 mph88%30.04 "Hg2 mi
6:50 PM52 °FFog.No wind88%30.04 "Hg2 mi
6:20 PM52 °FFog.No wind88%30.04 "Hg3 mi
5:50 PM52 °FFog.2 mph88%30.04 "Hg3 mi
5:20 PM52 °FFog.3 mph88%30.04 "Hg2 mi
4:50 PM54 °FFog.3 mph82%30.04 "Hg2 mi
4:20 PM54 °FFog.3 mph82%30.04 "Hg3 mi
3:50 PM54 °FFog.2 mph82%30.04 "Hg3 mi
3:20 PM55 °FFog.No wind77%30.04 "Hg3 mi
2:50 PM55 °FFog.2 mph77%30.04 "Hg3 mi
2:20 PM55 °FMore clouds than sun.2 mph77%30.04 "Hg4 mi
1:50 PM54 °FMostly cloudy.2 mph88%30.04 "Hg4 mi
1:20 PM54 °FFog.2 mph82%30.04 "Hg3 mi
12:50 PM54 °FFog.1 mph82%30.04 "Hg3 mi
12:20 PM54 °FMore clouds than sun.2 mph82%30.07 "HgN/A
11:50 AM54 °FMore clouds than sun.2 mph77%30.07 "HgN/A
11:20 AM54 °FMore clouds than sun.2 mph82%30.07 "HgN/A
10:50 AM54 °FMostly cloudy.2 mph77%30.07 "HgN/A
10:20 AM52 °FMostly cloudy.3 mph82%30.07 "Hg5 mi
9:50 AM52 °FLight rain. Mostly cloudy.2 mph82%30.09 "Hg5 mi
9:20 AM50 °FMostly cloudy.No wind88%30.09 "HgN/A
8:50 AM50 °FMore clouds than sun.2 mph88%30.07 "HgN/A
8:20 AM50 °FMore clouds than sun.3 mph88%30.07 "HgN/A
7:50 AM48 °FMore clouds than sun.2 mph94%30.07 "HgN/A
7:20 AM48 °FMore clouds than sun.No wind87%30.07 "HgN/A
6:50 AM48 °FMore clouds than sun.1 mph87%30.07 "Hg4 mi
6:20 AM48 °FPartly cloudy.2 mph87%30.07 "Hg4 mi
5:50 AM48 °FFog.2 mph87%30.07 "Hg4 mi
5:20 AM48 °FPartly cloudy.2 mph87%30.07 "Hg4 mi
4:20 AM48 °FPartly cloudy.2 mph87%30.07 "HgN/A
3:50 AM48 °FLight rain. Partly cloudy.1 mph87%30.09 "HgN/A
3:20 AM48 °FPartly cloudy.5 mph87%30.09 "HgN/A
2:50 AM48 °FPartly cloudy.2 mph87%30.09 "Hg4 mi
2:20 AM48 °FMostly cloudy.3 mph82%30.09 "Hg5 mi
1:50 AM48 °FLight rain. Mostly cloudy.1 mph82%30.09 "Hg4 mi
1:20 AM48 °FLight rain. Mostly cloudy.1 mph82%30.12 "Hg4 mi
12:50 AM48 °FOvercast.3 mph82%30.12 "Hg4 mi
12:20 AM48 °FOvercast.1 mph82%30.12 "HgN/A
11:50 PM
Nov 25
48 °FPassing clouds.1 mph87%30.12 "HgN/A
11:20 PM48 °FPassing clouds.3 mph82%30.12 "HgN/A
10:50 PM48 °FPartly cloudy.1 mph82%30.12 "HgN/A
10:20 PM48 °FPartly cloudy.2 mph82%30.12 "HgN/A
9:50 PM48 °FPartly cloudy.3 mph82%30.12 "HgN/A
9:20 PM46 °FPartly cloudy.3 mph87%30.12 "HgN/A
Weather by CustomWeather, © 2014

See weather overviewHow to use our weather pages